Overview Statistics Trail Chart Weather Telemetry Raw packets
 

This is the latest recevied weather packets stored in our database for station/object DG4CB-13. If no packets are shown the sender has not sent any weather packets the latest 10 day(s).

<< 24 25 26 27 28 29 30 >>
Time Temp. Humidity Pressure Rain* Wind** Luminosity Snow
1787922600 23.89° C 68% 1008.2 hPa - - - -
1787922000 23.33° C 70% 1008.6 hPa - - - -
1787921400 23.33° C 68% 1008.7 hPa - - - -
1787920800 23.33° C 71% 1008.9 hPa - - - -
1787920200 23.33° C 72% 1008.8 hPa - - - -
1787919600 22.78° C 76% 1008.9 hPa - - - -
1787919000 22.78° C 74% 1009.1 hPa - - - -
1787918400 22.78° C 76% 1009 hPa - - - -
1787917801 22.78° C 76% 1008.8 hPa - - - -
1787912400 22.78° C 73% 1008.7 hPa - - - -
1787911800 22.78° C 72% 1008.8 hPa - - - -
1787911200 22.78° C 71% 1009.1 hPa - - - -
1787910600 22.78° C 70% 1009 hPa - - - -
1787910000 22.78° C 71% 1009.1 hPa - - - -
1787909400 22.78° C 72% 1008.9 hPa - - - -
1787908800 22.78° C 71% 1008.6 hPa - - - -
1787908200 22.78° C 72% 1008.3 hPa - - - -
1787907600 22.78° C 73% 1008.2 hPa - - - -
1787907000 22.78° C 73% 1008.2 hPa - - - -
1787906400 22.78° C 75% 1008.5 hPa - - - -
1787905800 22.78° C 78% 1008.5 hPa - - - -
1787905200 22.78° C 79% 1008.6 hPa - - - -
1787904601 22.22° C 84% 1008.6 hPa - - - -
1787895000 20° C 89% 1008 hPa - - - -
1787894400 20° C 89% 1007.7 hPa - - - -

* Rain since midnight (hover to see other rain measurements)
** Current wind speed in m/s (hover to see current wind gust speed)